Regional Weather Roundup
Issued by NWS

Home | Current Version | Previous Version | Text Only | Print | Product List | Glossary Off
Versions: 1 2 3 4 5 6 7 8 9 10 11 12 13 14 15 16 17 18 19 20 21 22 23 24 25 26 27 28 29 30 31 32 33 34 35 36 37 38 39 40 41 42 43 44 45 46 47 48 49 50

000
ASUS43 KBIS 271610
RWRND

NORTH DAKOTA REGIONAL WEATHER ROUNDUP
NATIONAL WEATHER SERVICE BISMARCK ND
1100 AM CDT MON MAR 27 2017

NOTE: "FAIR" INDICATES FEW OR NO CLOUDS BELOW 12,000 FEET WITH NO
SIGNIFICANT WEATHER AND/OR OBSTRUCTIONS TO VISIBILITY.


NDZ001>003-009>011-017-271700-
NORTHWEST NORTH DAKOTA

CITY           SKY/WX    TMP DP  RH WIND       PRES   REMARKS
WILLISTON      PTSUNNY   48  29  47 CALM      29.91R
MINOT          CLOUDY    39  34  82 NW6       29.93S
MINOT AFB      FOG       33  33  99 NW6       29.93R VSB 1/2
$$

NDZ018>021-031>035-040>046-271700-
SOUTHWEST NORTH DAKOTA

CITY           SKY/WX    TMP DP  RH WIND       PRES   REMARKS
BISMARCK       FAIR      48  38  68 E5        29.94S
DICKINSON      FAIR      50  36  58 S7        29.89R
GARRISON         N/A     43  37  79 CALM      29.92R
HETTINGER ARPT SUNNY     49  36  61 S7        29.92S
$$

NDZ004>008-012>016-024-026-027-054-271700-
NORTHEAST NORTH DAKOTA

CITY           SKY/WX    TMP DP  RH WIND       PRES   REMARKS
GRAND FORKS    FOG       38  38 100 VRB6      30.01R VSB 1/4
GRND FRKS AFB  FOG       37  37 100 SE7       30.00F VSB 3/4
DEVILS LAKE    MIX PCPN  35  35 100 SE9       29.96R VSB 1/4
$$

NDZ022-023-025-028>030-036>039-047>053-271700-
SOUTHEAST NORTH DAKOTA

CITY           SKY/WX    TMP DP  RH WIND       PRES   REMARKS
FARGO          MOSUNNY   41  40  96 NE3       30.00S
JAMESTOWN      FAIR      47  40  76 E7        29.95S
$$




USA.gov is the U.S. government's official web portal to all federal, state and local government web resources and services.